Weather in Piatykhatky

Ukraine / Dnipropetrovsk Region     48°24′49″N   33°42′10″E
temp.,
°C
wind,
m/s
gust,
m/s
humid.,
%
clouds,
%
prec.,
mm/h
press.,
hPa
HPBL,
m
16 june, wed
wed1600:00+16e2288100 1.2 100921
03:00+17e2387100 1.2 100941
06:00+17sse2391100 0.0 101078
09:00+19ne348387 1.1 1011292
12:00+23ese3465100 3.3 1011999
15:00+23nne116381 5.0 1011831
18:00+22ene347097 2.6 1011392
21:00+18nne23840 3.4 101222
17 june, thu
thu1700:00+17nne3389100 0.0 101225
03:00+17nne4590100 0.0 101375
06:00+17ne4995100 1.1 1013266
09:00+18ne4795100 4.3 1015334
12:00+20ne3991100 4.4 1015378
15:00+20ene81391100 7.8 1016658
18:00+21e51186100 0.8 1016602
21:00+19ne4109592 2.6 1017302
18 june, fri
fri1800:00+18ene5119860 1.5 1017388
03:00+18ene51197100 1.6 1018382
06:00+18ene499790 0.1 1018493
09:00+18ene5109768 0.1 1019546
12:00+22e7107744 0.4 10191243
15:00+23e8117439 1.0 10201130
18:00+21e6118553 0.9 1021684
21:00+19ene5118984 1.9 1021360
19 june, sat
sat1900:00+17ne41194100 0.1 1021271
03:00+16ene5119244 0.2 1021262
06:00+16ene51193100 0.4 1021290
09:00+19ene61081100 0.5 1021464
12:00+21ene61074100 0.1 1021722
15:00+24e81063100 0.3 10201556
18:00+21ene51183100 0.3 1020474
21:00+20e4128834 1.3 1020377
20 june, sun
sun2000:00+18ene411935 0.1 1020270
03:00+16ene51191100 0.1 1020227
06:00+16ene61383100 0.2 1020303
09:00+20ene71367100 0.2 1019475
12:00+24e71155100 0.1 1018900
15:00+24ene61066100 1.1 10171047
18:00+24ene7116627 0.0 1016860
21:00+20ene5118597 0.3 1016256